If you wish to contribute or participate in the discussions about articles you are invited to join SKYbrary as a registered user

 Actions

Antwerp

From SKYbrary Wiki

EBAW
Airport
ICAO: EBAW – IATA: ANR
Summary
Name Antwerp
Region Europe
Territory Belgium BE.gif
Location Deurne, Antwerpen
Serving Antwerpen
Elevation 11.887 m
39 ft
39 ft11.887 m
Coordinates 51° 11' 22.56" N, 4° 27' 44.00" E
Runways
Designator Length Width Surface ROPS
11/29 1510 m4,954.068 ft
45 m147.638 ft
ASP yes/yes


METAR
Observation EBAW 252250Z AUTO 34006KT 310V010 9999 // SCT026/// BKN030/// OVC034/// 08/03 Q1032
Station Antwerpen / Deurne
Date/Time 25 March 2019 22:50:00
Wind direction 340°
Wind speed 06 kts
Lowest cloud amount scattered clouds
Temperature 8°C
Dew point 3°C
Humidity 70%
QNH 1032 hPa
Weather condition n/a

Antwerpen International Airport

ICAO: EBAW IATA: ANR

Description

Antwerpen International Airport is located 2 km1.08 nm
2,000 m
6,561.68 ft
from the city of Antwerp, Belgium.

Climatology

Temperate Marine climate/Oceanic climate (Köppen climate classification Cfb) - Moderately cool summer and comparatively warm winter.

Maps

Terrain

Loading map...

Airport Layout

Loading map...


Accidents & Serious Incidents at or in vicinity of EBAW

None on SKYbrary